Flag for China Weather past 2 weeks in Nanning, Guangxi, China

Now
81 °F

Passing clouds.


Feels Like: 88 °F
Forecast: 77 / 92 °F
Wind: 3 mph from East

Location: Nanning Airport

Current Time: May 26, 2015 at 4:14:10 AM

Latest Report: May 26, 2015 at 3:00 AM


Visibility: 5 mi

Pressure: 29.68 "Hg

Humidity: 94%

Dew point: 79 °F

Location of NanningLocation

Historic Weather in Nanning — Graph

°F

Nanning temperature yesterday

Maximum temperature yesterday: 90 °F (at 4:00 PM)
Minimum temperature yesterday: 75 °F (at 6:00 AM)
Average temperature yesterday: 81 °F

Past Weeks' High & Low Weather Summary

 TemperatureHumidityPressure
High91 °F (May 11, 3:00 PM)100% (May 11, 6:00 AM)29.95 "Hg (May 11, 6:00 AM)
Low70 °F (May 12, 5:00 AM)56% (May 11, 4:00 PM)29.56 "Hg (May 19, 5:00 PM)
Average81 °F84%29.72 "Hg
* Reported May 11 3:00 AM — May 26 3:00 AM, Nanning, Weather by CustomWeather, © 2015

Note: Actual official high and low records may vary slightly from our data, if they occured in-between our weather recording intervals... More about our weather records

Advertising

Nanning weather history for previous 24 hours

 ConditionsComfort  
Time TempWeatherWind HumidityBarometerVisibility
3:00 AM
Tue, May 26
81 °FPassing clouds.3 mph94%29.68 "Hg5 mi
2:00 AM81 °FPassing clouds.3 mph94%29.68 "HgN/A
1:00 AM81 °FPassing clouds.1 mph100%29.71 "HgN/A
12:00 AM82 °FPassing clouds.1 mph94%29.71 "Hg6 mi
11:00 PM
Mon, May 25
82 °FPassing clouds.1 mph94%29.68 "Hg5 mi
10:00 PM82 °FPassing clouds.3 mph94%29.68 "HgN/A
9:00 PM82 °FPassing clouds.6 mph89%29.65 "HgN/A
8:00 PM82 °FPassing clouds.8 mph89%29.65 "HgN/A
7:00 PM84 °FScattered clouds.8 mph84%29.62 "HgN/A
6:00 PM88 °FScattered clouds.8 mph75%29.59 "Hg5 mi
5:00 PM90 °FScattered clouds.3 mph67%29.59 "Hg4 mi
4:00 PM90 °FScattered clouds.1 mph67%29.62 "Hg4 mi
3:00 PM88 °FBroken clouds.3 mph70%29.62 "Hg4 mi
2:00 PM86 °FMore clouds than sun.3 mph75%29.65 "Hg4 mi
1:00 PM82 °FFog.6 mph84%29.68 "Hg3 mi
12:00 PM82 °FFog.1 mph79%29.71 "Hg3 mi
11:00 AM81 °FMore clouds than sun.3 mph84%29.71 "Hg4 mi
10:00 AM79 °FMore clouds than sun.3 mph89%29.74 "Hg4 mi
9:00 AM77 °FMore clouds than sun.6 mph89%29.71 "Hg4 mi
8:00 AM77 °FMore clouds than sun.6 mph89%29.71 "Hg4 mi
7:00 AM75 °FFog.6 mph94%29.68 "Hg2 mi
6:00 AM75 °FFog.6 mph100%29.68 "Hg3 mi
5:00 AM77 °FLight rain. Fog.3 mph94%29.68 "Hg3 mi
4:00 AM77 °FLight rain. Fog.6 mph94%29.68 "Hg3 mi
Weather by CustomWeather, © 2015

See weather overviewHow to use our weather pages